Alexandria, MN

5:23 PM CDT on May 20, 2018 (GMT -0500)
Chandler

Weather History for KAXN - March, 2012

Change the Weather History Date:

Thursday, March 1, 2012

  Actual Average Record
Temperature  
Mean Temperature 30 °F -  
Max Temperature 33 °F 31 °F 59 °F (1992)
Min Temperature 24 °F 11 °F -34 °F (1962)
Degree Days  
Heating Degree Days 36    
Moisture  
Dew Point 27 °F    
Average Humidity 90    
Maximum Humidity 100    
Minimum Humidity 75    
Precipitation  
Precipitation 0.00 in - - ()
Sea Level Pressure  
Sea Level Pressure 29.73 in    
Wind  
Wind Speed 5 mph (SSW)    
Max Wind Speed 15 mph    
Max Gust Speed -    
Visibility 8 miles    
Events      
Averages and records for this station are not official NWS values.
T = Trace of Precipitation, MM = Missing Value Source: NWS Daily Summary

Daily Weather History Graph

Daily Weather History Graph

Search for Another Location

Airport or City:

Astronomy

Mar. 01, 2012 Rise Set
Actual Time 6:59 AM CST 6:08 PM CST
Civil Twilight 6:29 AM CST 6:38 PM CST
Nautical Twilight 5:54 AM CST 7:13 PM CST
Astronomical Twilight 5:20 AM CST 7:48 PM CST
Moon 11:14 AM CST (3/1) 2:13 AM CST (3/1)
Length of Visible Light 12h 09m
Length of Day
11h 09m
First Quarter, 57% of the Moon is Illuminated
Mar 1
First Quarter
Mar 8
Full
Mar 14
Last Quarter
Mar 22
New
Mar 30
First Quarter

Hourly Weather History & Observations

Time (CST) Temp. Windchill Dew Point Humidity Pressure Visibility Wind Dir Wind Speed Gust Speed Precip Events Conditions
12:18 AM 30.2 °F - 26.6 °F 86% 29.72 in 10.0 mi Calm Calm - N/A   Overcast
12:53 AM 30.0 °F 26.5 °F 27.0 °F 88% 29.78 in 10.0 mi NE 3.5 mph - N/A   Overcast
1:53 AM 28.0 °F 22.8 °F 27.0 °F 96% 29.81 in 10.0 mi West 4.6 mph - N/A   Overcast
2:43 AM 28.4 °F - 26.6 °F 93% 29.75 in 9.0 mi Calm Calm - N/A   Overcast
2:53 AM 28.9 °F - 27.0 °F 92% 29.81 in 9.0 mi Calm Calm - N/A   Overcast
3:43 AM 28.4 °F 20.4 °F 26.6 °F 93% 29.75 in 8.0 mi West 8.1 mph - N/A   Overcast
3:53 AM 28.0 °F 24.2 °F 27.0 °F 96% 29.80 in 5.0 mi WNW 3.5 mph - N/A   Overcast
4:10 AM 28.4 °F - 26.6 °F 93% 29.74 in 5.0 mi Calm Calm - N/A   Overcast
4:39 AM 26.6 °F 22.6 °F 26.6 °F 100% 29.74 in 5.0 mi NW 3.5 mph - N/A   Overcast
4:49 AM 26.6 °F - 26.6 °F 100% 29.74 in 4.0 mi Calm Calm - N/A   Overcast
4:53 AM 27.0 °F - 27.0 °F 100% 29.79 in 4.0 mi Calm Calm - N/A   Overcast
5:04 AM 28.4 °F - 26.6 °F 93% 29.73 in 4.0 mi Calm Calm - N/A   Overcast
5:25 AM 28.4 °F - 26.6 °F 93% 29.73 in 4.0 mi Calm Calm - N/A   Overcast
5:53 AM 28.0 °F - 27.0 °F 96% 29.78 in 4.0 mi Calm Calm - N/A   Overcast
6:49 AM 26.6 °F - 26.6 °F 100% 29.74 in 4.0 mi Calm Calm - N/A   Overcast
6:53 AM 27.0 °F - 26.1 °F 96% 29.79 in 4.0 mi Calm Calm - N/A   Overcast
7:53 AM 28.0 °F 22.8 °F 27.0 °F 96% 29.78 in 4.0 mi ESE 4.6 mph - N/A   Overcast
8:43 AM 28.4 °F 22.2 °F 26.6 °F 93% 29.74 in 4.0 mi SSE 5.8 mph - N/A   Overcast
8:53 AM 28.9 °F 21.9 °F 27.0 °F 92% 29.80 in 5.0 mi SSE 6.9 mph - N/A   Overcast
9:53 AM 30.0 °F 23.2 °F 28.0 °F 92% 29.80 in 7.0 mi SSE 6.9 mph - N/A   Overcast
10:17 AM 30.2 °F 21.9 °F 28.4 °F 93% 29.75 in 9.0 mi South 9.2 mph - N/A   Overcast
10:32 AM 30.2 °F 21.3 °F 26.6 °F 86% 29.75 in 10.0 mi South 10.4 mph - N/A   Overcast
10:53 AM 30.9 °F 21.7 °F 28.0 °F 89% 29.81 in 9.0 mi SSW 11.5 mph - N/A   Overcast
11:44 AM 30.2 °F 21.9 °F 28.4 °F 93% 29.74 in 10.0 mi South 9.2 mph - N/A   Overcast
11:53 AM 32.0 °F 24.2 °F 28.4 °F 87% 29.73 in 10.0 mi South 9.2 mph - N/A   Overcast
12:04 PM 32.0 °F 24.2 °F 28.4 °F 87% 29.73 in 10.0 mi SSE 9.2 mph - N/A   Overcast
12:48 PM 32.0 °F 24.8 °F 28.4 °F 87% 29.71 in 10.0 mi South 8.1 mph - N/A   Overcast
12:53 PM 32.0 °F 23.6 °F 28.9 °F 88% 29.76 in 10.0 mi SSE 10.4 mph - N/A   Overcast
1:18 PM 32.0 °F 24.8 °F 28.4 °F 87% 29.70 in 10.0 mi South 8.1 mph - N/A   Overcast
1:53 PM 33.1 °F 25.5 °F 28.0 °F 82% 29.75 in 10.0 mi SSE 9.2 mph - N/A   Mostly Cloudy
2:17 PM 33.8 °F 25.8 °F 28.4 °F 81% 29.68 in 10.0 mi SSE 10.4 mph - N/A   Mostly Cloudy
2:26 PM 33.8 °F 23.9 °F 28.4 °F 81% 29.68 in 10.0 mi SSE 15.0 mph - N/A   Mostly Cloudy
2:34 PM 33.8 °F 23.9 °F 26.6 °F 75% 29.67 in 10.0 mi SSE 15.0 mph - N/A   Partly Cloudy
2:53 PM 33.1 °F 23.9 °F 27.0 °F 78% 29.71 in 10.0 mi SE 12.7 mph - N/A   Clear
3:53 PM 33.1 °F 23.9 °F 27.0 °F 78% 29.72 in 10.0 mi SSE 12.7 mph - N/A   Overcast
4:04 PM 33.8 °F 25.3 °F 26.6 °F 75% 29.67 in 10.0 mi SSE 11.5 mph - N/A   Mostly Cloudy
4:17 PM 32.0 °F 22.5 °F 26.6 °F 80% 29.67 in 10.0 mi SSE 12.7 mph - N/A   Scattered Clouds
4:53 PM 32.0 °F 23.0 °F 27.0 °F 82% 29.72 in 10.0 mi SSE 11.5 mph - N/A   Scattered Clouds
5:17 PM 32.0 °F 22.1 °F 26.6 °F 80% 29.67 in 10.0 mi South 13.8 mph - N/A   Overcast
5:45 PM 32.0 °F 22.5 °F 26.6 °F 80% 29.67 in 10.0 mi South 12.7 mph - N/A   Overcast
5:53 PM 32.0 °F 23.6 °F 27.0 °F 82% 29.73 in 10.0 mi South 10.4 mph - N/A   Overcast
6:53 PM 30.9 °F 22.8 °F 28.0 °F 89% 29.74 in 9.0 mi South 9.2 mph - N/A   Overcast
7:22 PM 30.2 °F 21.3 °F 28.4 °F 93% 29.69 in 8.0 mi SSW 10.4 mph - N/A   Overcast
7:42 PM 30.2 °F 21.3 °F 28.4 °F 93% 29.69 in 7.0 mi SSW 10.4 mph - N/A   Overcast
7:53 PM 30.9 °F 23.5 °F 28.9 °F 92% 29.75 in 7.0 mi SSW 8.1 mph - N/A   Overcast
8:00 PM 30.2 °F 22.6 °F 28.4 °F 93% 29.69 in 7.0 mi SSW 8.1 mph - N/A   Overcast
8:09 PM 30.2 °F 22.6 °F 28.4 °F 93% 29.69 in 7.0 mi SSW 8.1 mph - N/A   Overcast
8:48 PM 30.2 °F 22.6 °F 28.4 °F 93% 29.69 in 7.0 mi SW 8.1 mph - N/A   Overcast
8:53 PM 30.9 °F 23.5 °F 28.9 °F 92% 29.75 in 7.0 mi SW 8.1 mph - N/A   Overcast
8:58 PM 30.2 °F 23.4 °F 28.4 °F 93% 29.69 in 7.0 mi SW 6.9 mph - N/A   Overcast
9:30 PM 30.2 °F 22.6 °F 28.4 °F 93% 29.70 in 6.0 mi WSW 8.1 mph - N/A   Overcast
9:53 PM 30.9 °F 24.3 °F 28.0 °F 89% 29.75 in 6.0 mi SW 6.9 mph - N/A   Overcast
10:13 PM 30.2 °F 21.3 °F 28.4 °F 93% 29.70 in 6.0 mi SW 10.4 mph - N/A   Overcast
10:36 PM 30.2 °F 23.4 °F 28.4 °F 93% 29.70 in 7.0 mi WSW 6.9 mph - N/A   Overcast
10:41 PM 30.2 °F 21.9 °F 26.6 °F 86% 29.70 in 7.0 mi WSW 9.2 mph - N/A   Mostly Cloudy
10:53 PM 28.0 °F 21.7 °F 26.1 °F 92% 29.75 in 8.0 mi WSW 5.8 mph - N/A   Scattered Clouds
11:53 PM 24.1 °F 18.2 °F 23.0 °F 96% 29.75 in 7.0 mi SW 4.6 mph - N/A   Clear